Regional Weather Roundup
Issued by NWS

Home | Current Version | Previous Version | Graphics & Text | Print | Product List | Glossary On
Versions: 1 2 3 4 5 6 7 8 9 10 11 12 13 14 15 16 17 18 19 20 21 22 23 24 25 26 27 28 29 30 31 32 33 34 35 36 37 38 39 40 41 42 43 44 45 46 47 48 49 50
000
ASUS43 KLSX 150107
RWRMO

WEATHER SUMMARY FOR MISSOURI
NATIONAL WEATHER SERVICE SPRINGFIELD MO
700 PM CST THU DEC 14 2017

NOTE: "FAIR" INDICATES FEW OR NO CLOUDS BELOW 12,000 FEET WITH NO
       SIGNIFICANT WEATHER AND/OR OBSTRUCTIONS TO VISIBILITY.
       CURRENT SKY AND/OR WEATHER CONDITIONS ARE NOT AVAILABLE FOR
       CHILLICOTHE AND FARMINGTON.

MOZ001>031-035>038-043-044-053-054-150200-
...NORTHERN AND WESTERN MISSOURI...

CITY           SKY/WX    TMP DP  RH WIND       PRES   REMARKS
KANSAS CTY INT CLOUDY    37  24  59 CALM      30.09S
KANSAS C DTWN  CLOUDY    40  24  53 CALM      30.10R
LEE`S SUMMIT   CLOUDY    38  24  57 SE3       30.10R
ST JOSEPH      CLOUDY    36  26  67 NE3       30.11R
CHILLICOTHE      N/A     32  24  72 CALM      30.13R
KIRKSVILLE     CLOUDY    30  28  92 CALM      30.11R

$$
MOZ066>068-077>081-088>096-101>105-150200-
...SOUTHWEST MISSOURI...

CITY           SKY/WX    TMP DP  RH WIND       PRES   REMARKS
SPRINGFIELD    CLOUDY    37  24  59 CALM      30.11R
JOPLIN         CLOUDY    34  27  75 S5        30.13R WCI  30
BRANSON        CLOUDY    37  23  56 N6        30.12R

$$
MOZ032>034-039>042-045>050-055>058-069>072-150200-
...CENTRAL MISSOURI...

CITY           SKY/WX    TMP DP  RH WIND       PRES   REMARKS
COLUMBIA       CLOUDY    31  22  69 CALM      30.12R
JEFFERSON CITY CLOUDY    33  21  61 N5        30.14R WCI  29
ROLLA          CLOUDY    31  22  69 N3        30.10R
SEDALIA        CLOUDY    35  26  69 CALM      30.13R
WHITEMAN AFB   CLOUDY    34  24  65 CALM      30.08R
WARRENSBURG    CLOUDY    34  27  75 SE3       30.11S
OSAGE BEACH    CLOUDY    34  23  64 CALM      30.13R

$$
MOZ051-052-059>065-150200-
...EAST CENTRAL MISSOURI...

CITY           SKY/WX    TMP DP  RH WIND       PRES   REMARKS
ST LOUIS INTL  NOT AVBL
SPIRIT OF STL  CLOUDY    32  22  66 W3        30.12R
ST CHARLES     CLOUDY    31  19  61 N3        30.13R

$$
MOZ072>076-082>087-097>100-106>115-150200-
...SOUTH CENTRAL AND SOUTHEAST MISSOURI...

CITY           SKY/WX    TMP DP  RH WIND       PRES   REMARKS
CAPE GIRARDEAU CLOUDY    32  21  64 N3        30.11R
FARMINGTON     CLOUDY    31  22  69 N5        30.10R WCI  26
POPLAR BLUFF   CLOUDY    34  25  69 NE3       30.12R
WEST PLAINS    CLOUDY    36  21  54 N6        30.10R

$$



USA.gov is the U.S. government's official web portal to all federal, state and local government web resources and services.